CYGNUS NG-23

Last updated on Tue Sep 16 2025 00:02:08 GMT+0000 (Coordinated Universal Time)

1 65616U 25208A 25257.93079134 .00000000 00000+0 00000+0 0 9996 2 65616 51.6500 222.8923 0002100 153.5100 255.0900 16.11275795 04
UTC large
Height (km)
Speed (km/s)
/
Latitude / Longitude
Inclination (degrees)
Orbital Period (minutes)
Azimuth
Elevation
Range (km)
Doppler Factor

Next 0 passes for location: London (51.5072 / 0.1276)

Sorry there are no passes over London.